| time (UTC) | temp F | wind direction | speed MPH | gust MPH | rain 1hr in | rain 24hr in | rain mn in | humidity % | barometer mb |
| 20260508035856 | 68 | 205 | 8.0 | 11.0 | 0.00 | 0.00 | 0.00 | 50 | 1013.7 |
| 20260508034353 | 68 | 204 | 6.0 | 7.0 | 0.00 | 0.00 | 0.00 | 50 | 1014.0 |
| 20260508032851 | 69 | 201 | 7.0 | 9.0 | 0.00 | 0.00 | 0.00 | 49 | 1013.8 |
| 20260508031348 | 69 | 191 | 13.0 | 18.0 | 0.00 | 0.00 | 0.00 | 49 | 1013.8 |
| 20260508025844 | 68 | 181 | 6.0 | 8.0 | 0.00 | 0.00 | 0.00 | 49 | 1013.8 |
| 20260508024340 | 68 | 176 | 6.0 | 9.0 | 0.00 | 0.00 | 0.00 | 49 | 1014.1 |
| 20260508022836 | 68 | 251 | 6.0 | 9.0 | 0.00 | 0.00 | 0.00 | 49 | 1014.1 |
| 20260508021331 | 68 | 198 | 5.0 | 7.0 | 0.00 | 0.00 | 0.00 | 49 | 1014.4 |
| 20260508015828 | 69 | 206 | 4.0 | 7.0 | 0.00 | 0.00 | 0.00 | 49 | 1014.4 |
| 20260508014325 | 68 | 183 | 5.0 | 7.0 | 0.00 | 0.00 | 0.00 | 49 | 1014.7 |
| 20260508012820 | 67 | 197 | 6.0 | 9.0 | 0.00 | 0.00 | 0.00 | 50 | 1014.7 |
| 20260508011317 | 67 | 185 | 5.0 | 8.0 | 0.00 | 0.00 | 0.00 | 51 | 1014.8 |
| 20260508005815 | 66 | 202 | 5.0 | 8.0 | 0.00 | 0.00 | 0.00 | 52 | 1014.7 |
| 20260508004310 | 66 | 184 | 6.0 | 8.0 | 0.00 | 0.00 | 0.00 | 53 | 1014.7 |
| 20260508002806 | 65 | 210 | 6.0 | 8.0 | 0.00 | 0.00 | 0.00 | 53 | 1014.9 |
| 20260508001301 | 64 | 253 | 4.0 | 7.0 | 0.00 | 0.00 | 0.00 | 55 | 1014.9 |
| 20260507235756 | 64 | 228 | 2.0 | 3.0 | 0.00 | 0.00 | 0.00 | 55 | 1015.1 |
| 20260507234253 | 63 | 290 | 2.0 | 2.0 | 0.00 | 0.00 | 0.00 | 56 | 1015.3 |
| 20260507232750 | 61 | 192 | 4.0 | 7.0 | 0.00 | 0.00 | 0.00 | 59 | 1015.3 |
| 20260507231246 | 60 | 192 | 7.0 | 11.0 | 0.00 | 0.00 | 0.00 | 60 | 1015.2 |
| 20260507225746 | 59 | 182 | 5.0 | 7.0 | 0.00 | 0.00 | 0.00 | 61 | 1015.6 |
| 20260507224241 | 58 | 201 | 6.0 | 9.0 | 0.00 | 0.00 | 0.00 | 61 | 1015.4 |
| 20260507222736 | 57 | 239 | 5.0 | 6.0 | 0.00 | 0.00 | 0.00 | 63 | 1015.0 |
| 20260507221231 | 57 | 211 | 6.0 | 8.0 | 0.00 | 0.00 | 0.00 | 64 | 1015.3 |
| 20260507215728 | 56 | 321 | 4.0 | 7.0 | 0.00 | 0.00 | 0.00 | 64 | 1015.0 |
| 20260507214226 | 56 | 178 | 4.0 | 9.0 | 0.00 | 0.00 | 0.00 | 64 | 1015.1 |
| 20260507212726 | 55 | 194 | 7.0 | 10.0 | 0.00 | 0.00 | 0.00 | 64 | 1015.1 |
| 20260507211221 | 53 | 199 | 4.0 | 6.0 | 0.00 | 0.00 | 0.00 | 68 | 1014.9 |
| 20260507205718 | 53 | 195 | 7.0 | 9.0 | 0.00 | 0.00 | 0.00 | 67 | 1014.7 |
| 20260507204215 | 53 | 210 | 5.0 | 7.0 | 0.00 | 0.00 | 0.00 | 68 | 1014.7 |
| 20260507202711 | 52 | 239 | 1.0 | 1.0 | 0.00 | 0.00 | 0.00 | 68 | 1014.6 |
| 20260507201211 | 52 | 290 | 5.0 | 8.0 | 0.00 | 0.00 | 0.00 | 69 | 1014.5 |
| 20260507195706 | 52 | 219 | 3.0 | 3.0 | 0.00 | 0.00 | 0.00 | 68 | 1014.6 |
| 20260507194202 | 51 | 254 | 1.0 | 1.0 | 0.00 | 0.00 | 0.00 | 68 | 1014.9 |
| 20260507192657 | 51 | 207 | 2.0 | 2.0 | 0.00 | 0.00 | 0.00 | 67 | 1014.9 |
| 20260507191154 | 52 | 223 | 3.0 | 5.0 | 0.00 | 0.00 | 0.00 | 66 | 1015.0 |
| 20260507185653 | 52 | 249 | 3.0 | 5.0 | 0.00 | 0.00 | 0.00 | 66 | 1015.0 |
| 20260507184151 | 52 | 237 | 3.0 | 5.0 | 0.00 | 0.00 | 0.00 | 65 | 1015.0 |
| 20260507182647 | 53 | 262 | 4.0 | 7.0 | 0.00 | 0.00 | 0.00 | 63 | 1015.0 |
| 20260507181142 | 52 | 247 | 7.0 | 10.0 | 0.00 | 0.00 | 0.00 | 64 | 1015.2 |
| 20260507175637 | 52 | 229 | 6.0 | 8.0 | 0.00 | 0.00 | 0.00 | 63 | 1015.2 |
| 20260507174136 | 52 | 213 | 5.0 | 8.0 | 0.00 | 0.00 | 0.00 | 64 | 1015.4 |
| 20260507172631 | 51 | 296 | 5.0 | 7.0 | 0.00 | 0.00 | 0.00 | 65 | 1015.4 |
| 20260507171127 | 51 | 271 | 3.0 | 3.0 | 0.00 | 0.00 | 0.00 | 66 | 1015.3 |
| 20260507165622 | 51 | 185 | 2.0 | 3.0 | 0.00 | 0.00 | 0.00 | 66 | 1015.6 |
| 20260507164117 | 51 | 273 | 2.0 | 2.0 | 0.00 | 0.00 | 0.00 | 66 | 1015.7 |
| 20260507162613 | 50 | 273 | 2.0 | 2.0 | 0.00 | 0.00 | 0.00 | 66 | 1015.9 |
| 20260507161109 | 51 | 194 | 5.0 | 6.0 | 0.00 | 0.00 | 0.00 | 65 | 1016.2 |
| 20260507155609 | 51 | 203 | 4.0 | 5.0 | 0.00 | 0.00 | 0.00 | 65 | 1016.3 |
| 20260507154106 | 50 | 211 | 3.0 | 5.0 | 0.00 | 0.00 | 0.00 | 65 | 1016.6 |
| 20260507152601 | 49 | 251 | 1.0 | 1.0 | 0.00 | 0.00 | 0.00 | 65 | 1016.8 |
| 20260507151057 | 50 | 219 | 1.0 | 2.0 | 0.00 | 0.00 | 0.00 | 64 | 1016.7 |
| 20260507145557 | 49 | 194 | 3.0 | 8.0 | 0.00 | 0.00 | 0.00 | 64 | 1017.0 |
| 20260507144056 | 48 | 204 | 4.0 | 6.0 | 0.00 | 0.00 | 0.00 | 65 | 1017.1 |
| 20260507142555 | 48 | 277 | 1.0 | 1.0 | 0.00 | 0.00 | 0.00 | 65 | 1017.2 |
| 20260507141051 | 49 | 209 | 3.0 | 5.0 | 0.00 | 0.00 | 0.00 | 64 | 1017.3 |
| 20260507135548 | 50 | 185 | 4.0 | 6.0 | 0.00 | 0.00 | 0.00 | 62 | 1017.3 |
| 20260507134043 | 50 | 186 | 4.0 | 5.0 | 0.00 | 0.00 | 0.00 | 62 | 1017.3 |
| 20260507132540 | 50 | 243 | 6.0 | 9.0 | 0.00 | 0.00 | 0.00 | 61 | 1017.3 |
| 20260507131036 | 50 | 196 | 6.0 | 8.0 | 0.00 | 0.00 | 0.00 | 62 | 1017.4 |
| 20260507125535 | 50 | 162 | 6.0 | 8.0 | 0.00 | 0.00 | 0.00 | 61 | 1017.2 |
| 20260507124032 | 50 | 216 | 4.0 | 7.0 | 0.00 | 0.00 | 0.00 | 62 | 1017.2 |
| 20260507122527 | 51 | 186 | 3.0 | 5.0 | 0.00 | 0.00 | 0.00 | 61 | 1017.3 |
| 20260507121027 | 51 | 212 | 6.0 | 8.0 | 0.00 | 0.00 | 0.00 | 59 | 1017.3 |
| 20260507115522 | 51 | 191 | 5.0 | 7.0 | 0.00 | 0.02 | 0.02 | 59 | 1017.3 |
| 20260507114017 | 51 | 183 | 7.0 | 11.0 | 0.00 | 0.02 | 0.02 | 59 | 1017.2 |
| 20260507112515 | 52 | 204 | 6.0 | 8.0 | 0.00 | 0.02 | 0.02 | 57 | 1017.1 |
| 20260507111010 | 52 | 203 | 3.0 | 3.0 | 0.00 | 0.02 | 0.02 | 57 | 1016.7 |
| 20260507105506 | 52 | 211 | 6.0 | 8.0 | 0.00 | 0.02 | 0.02 | 57 | 1016.6 |
| 20260507104001 | 52 | 228 | 8.0 | 11.0 | 0.00 | 0.02 | 0.02 | 57 | 1016.7 |
| 20260507102458 | 52 | 233 | 3.0 | 3.0 | 0.00 | 0.02 | 0.02 | 58 | 1016.6 |
| 20260507100952 | 52 | 248 | 4.0 | 6.0 | 0.00 | 0.02 | 0.02 | 57 | 1016.8 |
| 20260507095451 | 52 | 209 | 5.0 | 9.0 | 0.00 | 0.02 | 0.02 | 57 | 1016.5 |
| 20260507093946 | 52 | 252 | 6.0 | 8.0 | 0.00 | 0.02 | 0.02 | 57 | 1016.7 |
| 20260507092444 | 53 | 202 | 6.0 | 9.0 | 0.00 | 0.02 | 0.02 | 56 | 1016.3 |
| 20260507090939 | 53 | 193 | 5.0 | 7.0 | 0.00 | 0.02 | 0.02 | 57 | 1016.3 |
| 20260507085435 | 53 | 222 | 4.0 | 6.0 | 0.00 | 0.02 | 0.02 | 56 | 1016.1 |
| 20260507083932 | 53 | 184 | 6.0 | 9.0 | 0.00 | 0.02 | 0.02 | 54 | 1015.6 |
| 20260507082432 | 53 | 254 | 5.0 | 8.0 | 0.00 | 0.02 | 0.02 | 54 | 1015.4 |
| 20260507080928 | 54 | 185 | 12.0 | 23.0 | 0.00 | 0.02 | 0.02 | 53 | 1015.1 |
| 20260507075428 | 54 | 185 | 5.0 | 9.0 | 0.00 | 0.02 | 0.02 | 52 | 1014.5 |
| 20260507073925 | 54 | 196 | 5.0 | 8.0 | 0.00 | 0.02 | 0.02 | 53 | 1014.5 |
| 20260507072422 | 55 | 199 | 5.0 | 7.0 | 0.00 | 0.02 | 0.02 | 53 | 1014.3 |
| 20260507070918 | 55 | 226 | 6.0 | 8.0 | 0.00 | 0.02 | 0.02 | 53 | 1013.7 |
| 20260507065415 | 56 | 206 | 6.0 | 10.0 | 0.00 | 0.02 | 0.02 | 53 | 1013.7 |
| 20260507063914 | 57 | 205 | 4.0 | 8.0 | 0.00 | 0.02 | 0.02 | 53 | 1013.6 |
| 20260507062410 | 58 | 196 | 5.0 | 7.0 | 0.00 | 0.02 | 0.02 | 52 | 1013.4 |
| 20260507060910 | 58 | 208 | 4.0 | 6.0 | 0.00 | 0.02 | 0.02 | 51 | 1013.4 |
| 20260507055410 | 59 | 222 | 6.0 | 7.0 | 0.00 | 0.02 | 0.02 | 51 | 1013.6 |
| 20260507053907 | 59 | 221 | 9.0 | 11.0 | 0.00 | 0.02 | 0.02 | 51 | 1013.5 |
| 20260507052406 | 58 | 186 | 7.0 | 9.0 | 0.05 | 0.02 | 0.02 | 53 | 1013.3 |
| 20260507050903 | 59 | 223 | 3.0 | 3.0 | 0.00 | 0.01 | 0.01 | 55 | 1013.1 |
| 20260507045358 | 53 | 199 | 3.0 | 5.0 | 0.07 | 0.01 | 0.01 | 67 | 1012.9 |
| 20260507043854 | 57 | 227 | 3.0 | 5.0 | 0.00 | 0.00 | 0.00 | 57 | 1012.8 |
| 20260507042349 | 62 | 251 | 2.0 | 2.0 | 0.00 | 0.00 | 0.00 | 43 | 1012.3 |
| 20260507040846 | 63 | 257 | 8.0 | 13.0 | 0.00 | 0.00 | 0.00 | 42 | 1012.3 |